Weather in Bekhteyevo

Russia / Smolensk Oblast     55°46′45″N   33°58′26″E
temp.,
°C
wind,
m/s
gust,
m/s
humid.,
%
clouds,
%
prec.,
mm/h
press.,
hPa
HPBL,
m
7 may, fri
fri700:00+4sw411942 0.0 1007402
03:00+2sw411952 0.0 1008302
06:00+2sw49952 0.0 1009288
09:00+7sw6107088 0.0 1010800
12:00+11sw7105042 0.1 10092218
15:00+12sw6850100 0.2 10092033
18:00+11ssw4968100 0.3 10091190
21:00+7sse3985100 0.6 1008171
8 may, sat
sat800:00+7s61386100 0.2 10071035
03:00+7sse51294100 1.8 1005854
06:00+8ssw4995100 0.3 1004549
09:00+9w2386100 0.5 1004498
12:00+10nw3474100 0.2 1004878
15:00+9nnw4571100 0.3 1005916
18:00+9n5971100 0.0 10051127
21:00+7nnw61172100 0.2 1006851
9 may, sun
sun900:00+5nnw61276100 0.1 1008895
03:00+4nw61283100 0.1 1011784
06:00+4nw71181100 0.0 1013907
09:00+6nnw7116121 0.0 10161256
12:00+10nw7104410 0.0 10172013
15:00+11nw683765 0.0 10192507
18:00+11nw47465 0.0 10211479
21:00+6nw33615 0.0 102444
10 may, mon
mon1000:00+4wnw22675 0.0 102515
03:00+3w22745 0.0 102711
06:00+4sw22725 0.0 102928
09:00+10sw23555 0.0 1029405
12:00+14sw33485 0.0 10291332
15:00+15ssw22465 0.0 10281380
18:00+15sse21535 0.0 1028713
21:00+10se22690 0.0 102910
11 may, tue
tue1100:00+8sse22741 0.0 103010
03:00+7se22764 0.0 103110
06:00+7ese23775 0.0 103145
09:00+12ese35585 0.0 1030402
12:00+16e464878 0.0 10301005
15:00+18ese454597 0.0 10281194
18:00+17ese365659 0.0 1028739
21:00+11ese3775100 0.0 1028103